Location: Cargill Incorporated Elevator
(42.7294°N, 93.7333°W)
Time: 05:40:10
(UTC+00:00)

SL-8 Rocket - Pass Details

Date: 19 January 2026
Orbit: 955 x 990 km, 82.9° (Epoch: 14 February)

Event Time Altitude Azimuth Distance (km) Brightness Sun altitude
Rises 12:17:32 0° 183° (S) 3,685 7.2 -15.0°
Reaches altitude 10° 12:20:02 10° 182° (S) 2,739 6.5 -14.6°
Maximum altitude 12:26:20 83° 96° (E) 997 4.1 -13.5°
Drops below altitude 10° 12:32:37 10° 9° (N) 2,738 6.3 -12.4°
Sets 12:35:08 0° 9° (N) 3,685 6.9 -11.9°
